Change the Weather History Date:

Thursday, October 16, 2014

  Actual Average Record
Temperature  
Mean Temperature 52 °F 48 °F  
Max Temperature 72 °F 60 °F 85 °F (1938)
Min Temperature 32 °F 37 °F 22 °F (1943)
Degree Days  
Heating Degree Days 13 17  
Month to date heating degree days 262 226  
Since 1 July heating degree days 457 439  
Cooling Degree Days 0 0  
Month to date cooling degree days 0 2  
Year to date cooling degree days 544 612  
Growing Degree Days 2 (Base 50)    
Moisture  
Dew Point 40 °F    
Average Humidity 69    
Maximum Humidity 100    
Minimum Humidity 37    
Precipitation  
Precipitation 0.00 in 0.07 in 2.09 in (1928)
Month to date precipitation 1.79 1.38  
Year to date precipitation 33.03 31.01  
Snow  
Snow 0.00 in 0.00 in 5.50 in (1937)
Month to date snowfall 0.0 0.1  
Since 1 July snowfall 0.0 0.1  
Since 1 September snowfall 0.0 0.1  
Snow Depth 0.00 in    
Sea Level Pressure  
Sea Level Pressure 29.75 in    
Wind  
Wind Speed 10 mph (SW)    
Max Wind Speed 20 mph    
Max Gust Speed 26 mph    
Visibility 10 miles    
Events      
T = Trace of Precipitation, MM = Missing Value Source: NWS Daily Summary

Daily Weather History Graph

Daily Weather History Graph

Search for Another Location

Airport or City:

Trip Planner

Search our weather history database for the weather conditions in past years. The results will help you decide how hot, cold, wet, or windy it might be!

Date:

Astronomy

Oct. 16, 2014 Rise Set
Actual Time 7:28 AM CDT 6:28 PM CDT
Civil Twilight 6:59 AM CDT 6:57 PM CDT
Nautical Twilight 6:26 AM CDT 7:30 PM CDT
Astronomical Twilight 5:53 AM CDT 8:03 PM CDT
Moon 12:29 AM CDT (10/16) 2:49 PM CDT (10/16)
Length of Visible Light 11h 57m
Length of Day
11h 00m
Last Quarter, 41% of the Moon is Illuminated
Oct 16
Last Quarter
Oct 23
New
Oct 30
First Quarter
Nov 6
Full
Nov 14
Last Quarter

Hourly Weather History & Observations

Time (CDT) Temp. Windchill Dew Point Humidity Pressure Visibility Wind Dir Wind Speed Gust Speed Precip Events Conditions
12:53 AM 33.8 °F - 33.8 °F 100% 29.88 in 10.0 mi Calm Calm - N/A   Clear
1:53 AM 35.1 °F - 33.1 °F 92% 29.88 in 10.0 mi Calm Calm - N/A   Clear
2:53 AM 34.0 °F 31.0 °F 32.0 °F 92% 29.86 in 10.0 mi SSE 3.5 mph - N/A   Clear
3:53 AM 35.6 °F 31.7 °F 33.8 °F 93% 29.86 in 10.0 mi SSW 4.6 mph - N/A   Clear
4:53 AM 35.1 °F 31.0 °F 33.1 °F 92% 29.86 in 10.0 mi South 4.6 mph - N/A   Clear
5:53 AM 35.1 °F 30.1 °F 34.0 °F 96% 29.85 in 10.0 mi South 5.8 mph - N/A   Clear
6:53 AM 35.6 °F 29.9 °F 33.8 °F 93% 29.83 in 10.0 mi South 6.9 mph - N/A   Clear
7:53 AM 35.1 °F 30.1 °F 35.1 °F 100% 29.82 in 9.0 mi South 5.8 mph - N/A   Clear
8:53 AM 45.0 °F 40.6 °F 43.0 °F 93% 29.82 in 10.0 mi South 8.1 mph - N/A   Clear
9:53 AM 55.9 °F - 45.0 °F 67% 29.79 in 10.0 mi South 10.4 mph - N/A   Clear
10:53 AM 62.1 °F - 41.0 °F 46% 29.76 in 10.0 mi South 17.3 mph 24.2 mph N/A   Clear
11:53 AM 66.0 °F - 41.0 °F 40% 29.74 in 10.0 mi South 16.1 mph - N/A   Clear
12:53 PM 69.1 °F - 42.1 °F 38% 29.71 in 10.0 mi South 17.3 mph - N/A   Clear
1:53 PM 71.1 °F - 44.1 °F 38% 29.68 in 10.0 mi SSW 16.1 mph 21.9 mph N/A   Clear
2:53 PM 72.0 °F - 45.0 °F 38% 29.66 in 10.0 mi SW 15.0 mph 24.2 mph N/A   Clear
3:53 PM 69.8 °F - 46.4 °F 43% 29.65 in 10.0 mi SW 9.2 mph - N/A   Clear
4:53 PM 68.0 °F - 46.9 °F 47% 29.65 in 10.0 mi West 11.5 mph - N/A   Clear
5:53 PM 64.0 °F - 46.9 °F 54% 29.65 in 10.0 mi West 8.1 mph - N/A   Clear
6:53 PM 57.9 °F - 46.0 °F 65% 29.66 in 10.0 mi WSW 6.9 mph - N/A   Clear
7:53 PM 57.0 °F - 42.1 °F 57% 29.68 in 10.0 mi WNW 12.7 mph - N/A   Clear
8:53 PM 53.1 °F - 39.9 °F 61% 29.68 in 10.0 mi WNW 10.4 mph - N/A   Clear
9:53 PM 53.6 °F - 39.2 °F 58% 29.68 in 10.0 mi West 10.4 mph - N/A   Clear
10:53 PM 51.1 °F - 39.9 °F 66% 29.66 in 10.0 mi West 9.2 mph - N/A   Clear
11:53 PM 48.0 °F - 39.9 °F 74% 29.66 in 10.0 mi West 9.2 mph - N/A   Clear